ARIANE 5 R/B, 41593

Orbit data source: Space-Track

ARIANE 5 R/B, 41593 is space debris in HEO originally from a launch on Sat, 18 Jun 2016 UTC launched from the French Guiana (FRGUI). Debris objects in space refer to the collection of defunct objects orbiting the Earth. Examples of debris include non-operational satellites, rocket bodies, and fragments generated from explosions, collisions, or faulty payload assembly.

Not visible in the next 10 days
Identifier
41593, 2016-039C
Orbit
HEO
Last TLE update
16 hours ago
Origin
Manufacturer
Airbus Safran
Mission
Spacecraft
Bus & Motor
ESC-A, Unknown motor
Mass
~5,000 kg wet, ~5,000 kg dry
Launch date (UTC)
2016-06-18 (9 years ago)
Launch vehicle
Unknown
Launch site
French Guiana (FRGUI)
Object type
Payload
Rocket body
Debris
Shape & HBR
Cyl + 1 Nozzle, 7 m
Radar Cross Section
41.627 m², Large (>1 m²)

Expand to show TLE details & history

TLE from 16 hours ago
0 ARIANE 5 R/B
1 41593U 16039C   25186.23818986  .00001159  00000-0  66057-3 0  9991
2 41593   6.0014  87.5109 7146407  83.2216 346.1752  2.42584212 77187
Epoch: 2025-07-05T05:42Z
TLE epoch observation values (Epoch: 2025-07-05T05:42:59.603Z)
Latitude
0.00006°
Longitude
77.99224°
Altitude
4,228.877 km
Speed
7.623 km/s
True Right ascension
05h 48m 52s
True Declination
0° 00' 00"
Sunlit
Object was in daylight at epoch
Visualization orbit readout
Latitude
-6.00455°
Longitude
-10.73202°
Altitude
32,877.998 km
Speed
1.809 km/s
Apparent Right ascension
23h 39m 57s
Apparent Declination
-10° 42' 07"
Sunlit
Object is in daylight
Visualization observer readout
Local Sidereal Time
09:43:21
Azimuth
310.458° NW
Elevation
-51.017°
Doppler factor
1
Orbital elements
Apogee altitude
33,748.611 km
Perigee altitude
299.962 km
Semi-major axis
23,402.424 km
Eccentricity
0.71464
Inclination
6.0014°
RAAN
87.5109°
Arg. of periapsis
83.2216°
True anomaly
Unknown
Mean anomaly
346.1752°
Eccentric anomaly
Unknown
Mean motion
0.60625 °/min
Orbital period
593.81 mins
BSTAR
0.00066057
Loading maneuver chart data...
Loading SW <> Apogee altitude chart data...
Loading historical data...
Loading historical data...
Loading historical data...
Loading historical data...
Loading historical data...
Loading historical data...
Loading historical data...
Other satellites on launch #39 in the year 2016 (2016-06-18 UTC)

ARIANE 5 R/B Visibility

Observer location: undefined°, undefined°

ARIANE 5 R/B is likely not visible in the next few days
Span
Click to sort rows by Start time (UTC) header in descending order
Start Az.
Max El. time (UTC)
Max El. Az.
Max El.
End time (UTC)
End Az.
|